Total_Precipitation_Accumulation
1.36 1.17 1.74 1.76 1.45 1.21 1.19 1.21 1.12 1.00 1.02 0.97 0.74 0.68 0.69 0.68 0.59 0.47 0.38 0.32 0.32 0.32 0.36 0.38 0.39 0.42 0.38 0.34 0.36 0.45 0.48 0.43 0.39 0.40 0.53 0.61 0.62 0.70 0.79 0.90 1.17 1.42 1.10
1.14 1.04 1.65 1.79 1.53 1.29 1.14 1.15 1.19 1.08 1.12 1.01 0.85 0.75 0.74 0.69 0.61 0.48 0.36 0.29 0.29 0.30 0.32 0.35 0.40 0.40 0.38 0.40 0.44 0.50 0.48 0.40 0.34 0.40 0.64 0.83 0.77 0.71 0.69 0.78 1.16 1.35 1.06
0.90 0.88 1.25 1.71 1.58 1.34 1.19 1.15 1.19 1.16 1.20 1.11 1.02 0.90 0.80 0.71 0.63 0.51 0.39 0.37 0.36 0.32 0.31 0.34 0.46 0.46 0.42 0.49 0.50 0.51 0.50 0.39 0.35 0.49 0.90 1.55 1.18 0.74 0.67 0.77 1.02 0.91 0.90
0.81 0.79 0.95 1.40 1.35 1.19 1.09 1.14 1.20 1.17 1.26 1.21 1.01 0.84 0.70 0.68 0.67 0.56 0.49 0.56 0.41 0.33 0.33 0.37 0.48 0.51 0.48 0.50 0.52 0.49 0.51 0.50 0.55 0.66 1.09 1.55 1.56 1.01 0.88 1.02 1.03 0.92 0.96
0.84 0.83 1.12 1.44 1.38 1.26 1.14 1.24 1.32 1.28 1.30 1.15 0.88 0.71 0.66 0.68 0.72 0.72 0.71 0.68 0.45 0.37 0.33 0.38 0.47 0.53 0.51 0.48 0.46 0.44 0.46 0.57 0.76 0.88 1.16 1.46 1.73 1.27 1.01 1.06 1.06 0.96 1.05
0.87 0.84 1.07 1.41 1.38 1.30 1.23 1.29 1.34 1.37 1.35 1.23 0.95 0.77 0.72 0.77 0.77 0.75 0.81 0.68 0.57 0.49 0.41 0.43 0.49 0.53 0.49 0.46 0.46 0.45 0.52 0.63 0.74 0.98 1.25 1.53 1.63 1.23 0.96 1.00 1.06 1.15 1.13
0.81 0.76 0.84 1.20 1.27 1.22 1.23 1.37 1.42 1.44 1.42 1.34 1.10 0.92 0.81 0.77 0.77 0.79 0.85 0.72 0.66 0.58 0.54 0.56 0.57 0.56 0.52 0.50 0.47 0.47 0.51 0.55 0.61 0.86 1.09 1.53 1.40 1.08 0.91 0.96 1.01 1.06 1.12
0.96 0.84 0.77 1.00 1.11 1.13 1.19 1.29 1.33 1.34 1.31 1.26 1.09 0.94 0.87 0.82 0.79 0.87 0.92 0.81 0.74 0.65 0.58 0.60 0.62 0.62 0.58 0.54 0.50 0.50 0.52 0.47 0.47 0.68 0.92 1.27 1.28 1.14 0.96 1.00 1.12 1.07 1.11
1.13 1.04 0.88 0.88 0.97 1.13 1.25 1.26 1.21 1.15 1.15 1.12 1.01 0.95 0.88 0.84 0.78 0.81 0.84 0.78 0.77 0.78 0.72 0.66 0.64 0.64 0.59 0.58 0.55 0.55 0.54 0.47 0.51 0.65 0.70 1.10 1.18 1.14 1.00 1.02 1.15 1.21 1.23
1.34 1.14 0.93 0.83 0.86 0.91 0.98 1.12 1.19 1.19 1.15 1.13 0.99 0.89 0.84 0.78 0.71 0.73 0.69 0.66 0.72 0.83 0.89 0.80 0.71 0.68 0.63 0.58 0.56 0.59 0.57 0.43 0.49 0.60 0.74 0.88 1.05 1.12 1.03 0.92 0.91 0.95 1.04
1.13 1.02 1.02 0.97 0.94 0.97 0.92 0.96 1.14 1.22 1.21 1.09 1.00 0.93 0.84 0.65 0.56 0.62 0.59 0.70 0.80 0.93 0.99 0.97 0.89 0.78 0.69 0.58 0.56 0.59 0.48 0.38 0.52 0.61 0.76 0.80 1.04 1.14 1.06 0.91 0.82 0.75 0.83
0.83 0.82 0.86 0.90 0.96 0.99 0.90 1.10 1.32 1.20 1.05 0.85 0.87 0.80 0.77 0.72 0.69 0.57 0.61 0.79 0.92 0.96 0.95 0.99 1.02 0.89 0.69 0.50 0.51 0.50 0.35 0.34 0.42 0.47 0.57 0.80 1.04 1.12 1.07 0.95 0.83 0.73 0.76
0.71 0.70 0.67 0.71 0.80 0.88 1.00 1.22 1.54 1.57 1.34 1.15 0.97 0.90 0.87 0.76 0.68 0.63 0.62 0.68 0.76 0.79 0.70 0.75 0.80 0.66 0.55 0.53 0.55 0.44 0.35 0.36 0.36 0.42 0.57 0.84 1.05 1.13 1.05 0.97 0.94 0.84 0.79
0.56 0.60 0.50 0.47 0.60 0.70 0.81 0.93 1.22 1.29 1.22 1.08 0.91 0.84 0.90 0.85 0.75 0.71 0.69 0.73 0.74 0.73 0.78 0.81 0.85 0.77 0.61 0.55 0.54 0.55 0.49 0.42 0.43 0.54 0.67 0.78 1.04 1.17 1.12 1.06 1.03 0.94 0.89
0.57 0.61 0.56 0.47 0.48 0.52 0.56 0.64 0.76 0.92 1.03 1.03 0.99 0.83 0.82 0.81 0.76 0.78 0.73 0.78 0.70 0.68 0.76 0.83 0.83 0.84 0.76 0.63 0.59 0.59 0.66 0.58 0.53 0.57 0.72 0.84 1.09 1.28 1.35 1.24 1.11 1.04 1.02
0.52 0.64 0.63 0.53 0.49 0.50 0.48 0.47 0.48 0.61 0.76 0.92 0.94 0.83 0.85 0.86 0.81 0.86 0.83 0.83 0.79 0.73 0.76 0.92 0.86 0.90 0.88 0.81 0.64 0.61 0.65 0.62 0.57 0.58 0.68 0.92 1.02 1.08 1.33 1.49 1.40 1.26 1.13
0.46 0.51 0.58 0.55 0.57 0.60 0.60 0.59 0.49 0.52 0.59 0.73 0.85 0.84 0.90 0.85 0.77 0.82 0.85 0.82 0.81 0.82 0.82 0.88 0.89 0.94 0.85 0.79 0.71 0.66 0.64 0.60 0.53 0.59 0.61 0.69 0.67 0.73 0.98 1.28 1.47 1.41 1.31
0.47 0.51 0.55 0.57 0.63 0.69 0.74 0.75 0.69 0.74 0.76 0.77 0.92 0.89 0.84 0.87 0.84 0.84 0.90 0.91 0.95 0.99 0.96 0.96 0.99 1.01 0.95 0.93 0.89 0.84 0.68 0.66 0.61 0.62 0.60 0.60 0.64 0.59 0.71 0.86 1.09 1.23 1.37
0.44 0.45 0.48 0.57 0.62 0.65 0.73 0.85 0.98 1.03 1.02 0.98 1.01 0.97 0.87 0.85 0.91 1.03 1.07 1.12 1.09 1.10 1.12 1.09 1.10 1.03 1.02 1.01 0.93 0.91 0.79 0.74 0.72 0.63 0.69 0.69 0.69 0.64 0.66 0.61 0.67 0.75 0.96
0.35 0.37 0.42 0.49 0.65 0.81 0.88 0.92 1.08 1.13 1.21 1.30 1.35 1.22 1.09 1.10 1.22 1.37 1.46 1.40 1.39 1.37 1.35 1.31 1.39 1.28 1.11 1.09 1.02 0.95 0.82 0.73 0.79 0.75 0.77 0.77 0.80 0.77 0.72 0.61 0.56 0.49 0.59
0.23 0.29 0.34 0.40 0.55 0.70 0.80 0.91 1.10 1.28 1.46 1.62 1.74 1.63 1.49 1.45 1.61 1.72 1.65 1.73 1.77 1.63 1.62 1.66 1.73 1.68 1.41 1.26 1.33 1.22 0.95 0.72 0.78 0.78 0.75 0.79 0.86 0.98 1.01 0.87 0.72 0.63 0.60
0.14 0.18 0.23 0.31 0.42 0.55 0.71 0.94 1.16 1.46 1.55 1.64 1.78 1.82 1.76 1.69 1.84 1.88 1.96 2.02 2.05 2.04 2.00 1.88 1.96 2.05 1.79 1.56 1.64 1.91 1.51 1.11 0.79 0.65 0.74 0.77 0.87 1.12 1.19 1.03 0.83 0.74 0.70
0.10 0.11 0.18 0.29 0.44 0.66 0.89 1.20 1.50 1.73 1.81 1.86 1.81 1.88 1.97 2.02 2.08 2.10 2.16 2.22 2.22 2.07 2.05 2.14 2.24 2.55 2.35 2.00 1.83 2.05 1.83 1.51 1.22 0.82 0.76 0.83 0.92 1.10 1.22 1.24 1.12 1.04 0.94
0.12 0.16 0.26 0.42 0.62 0.90 1.23 1.58 1.82 2.05 2.14 1.99 1.97 2.01 2.03 1.98 2.01 2.12 2.14 2.13 2.10 2.03 2.09 2.15 2.19 2.55 2.72 2.42 2.11 1.78 1.57 1.53 1.56 1.25 0.92 0.88 0.98 1.00 1.12 1.20 1.15 1.22 1.19
0.25 0.32 0.48 0.72 1.01 1.29 1.52 1.70 1.92 2.05 2.07 2.05 2.01 2.00 1.93 1.91 1.87 1.91 1.93 2.01 2.04 2.08 2.14 2.29 2.39 2.61 2.63 2.62 2.45 2.26 2.05 1.74 1.40 1.42 1.35 1.11 1.09 1.01 1.10 1.23 1.27 1.35 1.34
0.42 0.55 0.73 0.91 1.19 1.36 1.48 1.60 1.79 1.94 1.99 2.01 1.99 1.99 1.98 1.95 1.85 1.79 1.76 1.82 1.94 2.11 2.17 2.25 2.38 2.60 2.70 2.78 2.70 2.45 2.34 2.17 1.86 1.73 1.48 1.35 1.34 1.16 1.13 1.16 1.20 1.32 1.44